Weather History for McMinnville, OR

Change the Weather History Date:

Saturday, March 23, 2013

  Actual Average Record
Temperature  
Mean Temperature 42 °F 48 °F  
Max Temperature 50 °F 57 °F 74 °F (1979)
Min Temperature 33 °F 38 °F 16 °F (1920)
Degree Days  
Heating Degree Days 23 17  
Month to date heating degree days 439 437  
Since 1 July heating degree days 3516 3816  
Cooling Degree Days 0 0  
Month to date cooling degree days 0 0  
Year to date cooling degree days 0 0  
Moisture  
Dew Point 30 °F    
Average Humidity 63    
Maximum Humidity 89    
Minimum Humidity 36    
Precipitation  
Precipitation 0.00 in 0.12 in 1.33 in (1917)
Month to date precipitation 1.84 3.07  
Year to date precipitation 4.51 13.61  
Snow  
Snow 0.00 in - - ()
Month to date snowfall 0.0  
Snow Depth 0.00 in    
Sea Level Pressure  
Sea Level Pressure 30.36 in    
Wind  
Wind Speed 1 mph (NNW)    
Max Wind Speed 15 mph    
Max Gust Speed 19 mph    
Visibility 10 miles    
Events      
T = Trace of Precipitation, MM = Missing Value Source: NWS Daily Summary

Daily Weather History Graph

Daily Weather History Graph

Search for Another Location

Airport:

Trip Planner

Search our weather history database for the weather conditions in past years. The results will help you decide how hot, cold, wet, or windy it might be!

Date:

Astronomy

Mar. 23, 2013 Rise Set
Actual Time 7:09 AM PDT 7:29 PM PDT
Civil Twilight 6:39 AM PDT 7:58 PM PDT
Nautical Twilight 6:05 AM PDT 8:33 PM PDT
Astronomical Twilight 5:29 AM PDT 9:09 PM PDT
Moon 3:53 PM PDT (3/23) 4:58 AM PDT (3/23)
Length of Visible Light 13h 19m
Length of Day
12h 20m
Waxing Gibbous, 86% of the Moon is Illuminated
Mar 23
Waxing Gibbous
Mar 27
Full
Apr 2
Last Quarter
Apr 10
New
Apr 18
First Quarter

Hourly Weather History & Observations

Time (PDT) Temp. Windchill Dew Point Humidity Pressure Visibility Wind Dir Wind Speed Gust Speed Precip Events Conditions
12:53 AM 36.0 °F - 30.9 °F 82% 30.41 in 10.0 mi Calm Calm - N/A   Clear
1:53 AM 34.0 °F - 30.9 °F 89% 30.41 in 10.0 mi Calm Calm - N/A   Clear
2:53 AM 34.0 °F - 30.9 °F 89% 30.41 in 10.0 mi Calm Calm - N/A   Clear
3:53 AM 34.0 °F - 30.9 °F 89% 30.40 in 10.0 mi Calm Calm - N/A   Clear
4:53 AM 34.0 °F 31.0 °F 30.9 °F 89% 30.39 in 10.0 mi NW 3.5 mph - N/A   Clear
5:53 AM 34.0 °F - 30.0 °F 85% 30.39 in 10.0 mi Calm Calm - N/A   Clear
6:53 AM 33.1 °F - 30.9 °F 92% 30.40 in 10.0 mi Calm Calm - N/A   Mostly Cloudy
7:53 AM 34.0 °F - 30.9 °F 89% 30.40 in 10.0 mi Calm Calm - N/A   Partly Cloudy
8:53 AM 36.0 °F - 32.0 °F 86% 30.40 in 10.0 mi Calm Calm - N/A   Mostly Cloudy
9:53 AM 37.9 °F - 34.0 °F 86% 30.40 in 10.0 mi Calm Calm - N/A   Mostly Cloudy
10:53 AM 41.0 °F - 33.1 °F 73% 30.40 in 10.0 mi Calm Calm - N/A   Clear
11:53 AM 44.1 °F - 30.9 °F 60% 30.39 in 10.0 mi Calm Calm - N/A   Clear
12:53 PM 46.0 °F - 30.0 °F 54% 30.37 in 10.0 mi Calm Calm - N/A   Clear
1:53 PM 46.9 °F - 30.9 °F 54% 30.37 in 10.0 mi Calm Calm - N/A   Mostly Cloudy
2:53 PM 46.9 °F - 30.0 °F 52% 30.34 in 10.0 mi Calm Calm - N/A   Partly Cloudy
3:53 PM 48.9 °F - 25.0 °F 39% 30.33 in 10.0 mi Calm Calm - N/A   Clear
4:53 PM 48.9 °F - 26.1 °F 41% 30.32 in 10.0 mi Calm Calm - N/A   Unknown
5:53 PM 50.0 °F - 25.0 °F 38% 30.31 in 10.0 mi North 3.5 mph - N/A   Clear
6:53 PM 46.9 °F - 27.0 °F 46% 30.30 in 10.0 mi Calm Calm - N/A   Clear
7:53 PM 43.0 °F 41.3 °F 27.0 °F 53% 30.29 in 10.0 mi NNE 3.5 mph - N/A   Clear
8:53 PM 42.1 °F 39.2 °F 28.9 °F 60% 30.30 in 10.0 mi NNW 4.6 mph - N/A   Clear
9:53 PM 39.9 °F 36.7 °F 30.0 °F 68% 30.30 in 10.0 mi North 4.6 mph - N/A   Clear
10:53 PM 37.9 °F 33.5 °F 30.9 °F 76% 30.30 in 10.0 mi North 5.8 mph - N/A   Clear
11:53 PM 37.9 °F 33.5 °F 30.9 °F 76% 30.29 in 10.0 mi NNW 5.8 mph - N/A   Clear